Flag for Norway Weather past 2 weeks in Flekkefjord, Norway

Now
67 °F

Passing clouds.


Feels Like: 67 °F
Forecast: 62 / 66 °F
Wind: 12 mph from Northwest

Location: Lista Fyr

Current Time: Jul 29, 2014 at 11:36:48 AM

Latest Report: Jul 29, 2014 at 11:00 AM


Visibility: 19 mi

Pressure: 29.88 "Hg

Humidity: 73%

Dew point: 58 °F

Location of FlekkefjordLocation

Historic Weather in Flekkefjord — Graph

°F

Flekkefjord temperature yesterday

Maximum temperature yesterday: 72 °F (at 2:00 PM)
Minimum temperature yesterday: 59 °F (at 6:00 AM)
Average temperature yesterday: 67 °F

Past Weeks' High & Low Weather Summary

 TemperatureHumidityPressure
High78 °F (Jul 22, 10:00 AM)95% (Jul 15, 11:00 AM)30.29 "Hg (Jul 15, 11:00 AM)
Low53 °F (Jul 19, 4:00 AM)41% (Jul 20, 7:00 PM)29.66 "Hg (Jul 14, 10:00 AM)
Average66 °F73%30.05 "Hg
* Reported Jul 14 10:00 AM — Jul 29 10:00 AM, Flekkefjord, Weather by CustomWeather, © 2014

Note: Actual official high and low records may vary slightly from our data, if they occured in-between our weather recording intervals... More about our weather records

Advertising

Flekkefjord weather history for previous 24 hours

 ConditionsComfort  
Time TempWeatherWind HumidityBarometerVisibility
10:00 AM
Jul 29
67 °FMild.12 mph76%29.87 "HgN/A
9:00 AM67 °FMild.8 mph71%29.88 "HgN/A
8:00 AM67 °FPassing clouds.7 mph73%29.87 "Hg16 mi
7:00 AM66 °FMild.7 mph75%29.87 "HgN/A
6:00 AM65 °FMild.5 mph80%29.89 "HgN/A
5:00 AM65 °FMild.8 mph82%29.90 "HgN/A
4:00 AM65 °FMild.8 mph82%29.91 "HgN/A
3:00 AM66 °FMild.7 mph82%29.91 "HgN/A
2:00 AM66 °FMild.7 mph83%29.91 "HgN/A
1:00 AM67 °FMild.8 mph81%29.92 "HgN/A
12:00 AM67 °FMild.8 mph82%29.92 "HgN/A
11:00 PM
Jul 28
68 °FMild.9 mph81%29.93 "HgN/A
10:00 PM69 °FMild.12 mph81%29.92 "HgN/A
9:00 PM69 °FMild.8 mph83%29.94 "HgN/A
8:00 PM69 °FPassing clouds.8 mph78%29.94 "Hg12 mi
7:00 PM70 °FMild.8 mph74%29.96 "HgN/A
6:00 PM71 °FMild.9 mph72%29.96 "HgN/A
5:00 PM70 °FMild.9 mph73%29.96 "HgN/A
4:00 PM70 °FMild.8 mph76%29.97 "HgN/A
3:00 PM70 °FMild.7 mph75%29.97 "HgN/A
2:00 PM72 °FScattered clouds.7 mph74%29.98 "Hg16 mi
1:00 PM71 °FMild.6 mph71%29.98 "HgN/A
12:00 PM70 °FMild.3 mph73%29.98 "HgN/A
11:00 AM69 °FPassing clouds.2 mph75%29.98 "Hg19 mi
Weather by CustomWeather, © 2014

See weather overviewHow to use our weather pages